Time,TemperatureF,DewpointF,PressureIn,WindDirection,WindDirectionDegrees,WindSpeedMPH,WindSpeedGustMPH,Humidity,HourlyPrecipIn,Conditions,Clouds,dailyrainin,SoftwareType,DateUTC
2013-04-05 00:03:00,39.0,-99.9,-100.00,North,-999,-999.0,-999.0,-999,0.17,,,0.67,,2013-04-05 04:03:00,
2013-04-05 00:13:00,39.0,-99.9,-100.00,North,-999,-999.0,-999.0,-999,0.17,,,0.67,,2013-04-05 04:13:00,
2013-04-05 00:53:00,40.0,-99.9,-100.00,North,-999,-999.0,-999.0,-999,0.21,,,0.88,,2013-04-05 04:53:00,
2013-04-05 01:03:00,40.0,-99.9,-100.00,North,-999,-999.0,-999.0,-999,0.21,,,0.88,,2013-04-05 05:03:00,
2013-04-05 01:14:00,40.0,-99.9,-100.00,North,-999,-999.0,-999.0,-999,0.21,,,0.88,,2013-04-05 05:14:00,
2013-04-05 01:54:00,41.0,-99.9,-100.00,North,-999,-999.0,-999.0,-999,0.11,,,0.99,,2013-04-05 05:54:00,
2013-04-05 02:12:00,41.0,-99.9,-100.00,North,-999,-999.0,-999.0,-999,0.11,,,0.99,,2013-04-05 06:12:00,
2013-04-05 02:52:00,41.0,-99.9,-100.00,North,-999,-999.0,-999.0,-999,0.03,,,1.02,,2013-04-05 06:52:00,
2013-04-05 03:03:00,41.0,-99.9,-100.00,North,-999,-999.0,-999.0,-999,0.03,,,1.02,,2013-04-05 07:03:00,
2013-04-05 03:12:00,41.0,-99.9,-100.00,North,-999,-999.0,-999.0,-999,0.03,,,1.02,,2013-04-05 07:12:00,
2013-04-05 03:53:00,40.0,-99.9,-100.00,North,-999,-999.0,-999.0,-999,0.01,,,1.03,,2013-04-05 07:53:00,
2013-04-05 04:03:00,40.0,-99.9,-100.00,North,-999,-999.0,-999.0,-999,0.01,,,1.03,,2013-04-05 08:03:00,
2013-04-05 04:13:00,40.0,-99.9,-100.00,North,-999,-999.0,-999.0,-999,0.01,,,1.03,,2013-04-05 08:13:00,
2013-04-05 05:03:00,39.0,-99.9,-100.00,North,-999,-999.0,-999.0,-999,0.01,,,-99.99,,2013-04-05 09:03:00,
2013-04-05 05:13:00,39.0,-99.9,-100.00,North,-999,-999.0,-999.0,-999,0.01,,,-99.99,,2013-04-05 09:13:00,
2013-04-05 05:53:00,40.0,-99.9,-100.00,North,-999,-999.0,-999.0,-999,0.01,,,1.05,,2013-04-05 09:53:00,
2013-04-05 06:04:00,40.0,-99.9,-100.00,North,-999,-999.0,-999.0,-999,0.01,,,1.05,,2013-04-05 10:04:00,
2013-04-05 06:13:00,40.0,-99.9,-100.00,North,-999,-999.0,-999.0,-999,0.01,,,1.05,,2013-04-05 10:13:00,
2013-04-05 07:52:00,39.0,-99.9,-100.00,North,-999,-999.0,-999.0,-999,0.00,,,1.05,,2013-04-05 11:52:00,
2013-04-05 08:02:00,39.0,-99.9,-100.00,North,-999,-999.0,-999.0,-999,0.00,,,1.05,,2013-04-05 12:02:00,
2013-04-05 08:12:00,39.0,-99.9,-100.00,North,-999,-999.0,-999.0,-999,0.00,,,1.05,,2013-04-05 12:12:00,
2013-04-05 09:02:00,40.0,-99.9,-100.00,North,-999,-999.0,-999.0,-999,0.00,,,1.05,,2013-04-05 13:02:00,
2013-04-05 09:12:00,40.0,-99.9,-100.00,North,-999,-999.0,-999.0,-999,0.00,,,1.05,,2013-04-05 13:12:00,
2013-04-05 09:53:00,41.0,-99.9,-100.00,North,-999,-999.0,-999.0,-999,0.00,,,1.05,,2013-04-05 13:53:00,
2013-04-05 10:04:00,41.0,-99.9,-100.00,North,-999,-999.0,-999.0,-999,0.00,,,1.05,,2013-04-05 14:04:00,
2013-04-05 10:12:00,41.0,-99.9,-100.00,North,-999,-999.0,-999.0,-999,0.00,,,1.05,,2013-04-05 14:12:00,
2013-04-05 10:55:00,46.0,-99.9,-100.00,North,-999,-999.0,-999.0,-999,0.00,,,1.05,,2013-04-05 14:55:00,
2013-04-05 11:02:00,46.0,-99.9,-100.00,North,-999,-999.0,-999.0,-999,0.00,,,1.05,,2013-04-05 15:02:00,
2013-04-05 11:14:00,46.0,-99.9,-100.00,North,-999,-999.0,-999.0,-999,0.00,,,1.05,,2013-04-05 15:14:00,
2013-04-05 11:15:00,47.0,-99.9,-100.00,North,-999,-999.0,-999.0,-999,0.00,,,1.05,,2013-04-05 15:15:00,
2013-04-05 11:55:00,47.0,-99.9,-100.00,North,-999,-999.0,-999.0,-999,0.00,,,1.05,,2013-04-05 15:55:00,
2013-04-05 12:03:00,47.0,-99.9,-100.00,North,-999,-999.0,-999.0,-999,0.00,,,1.05,,2013-04-05 16:03:00,
2013-04-05 13:53:00,57.0,-99.9,-100.00,North,-999,-999.0,-999.0,-999,0.00,,,0.97,,2013-04-05 17:53:00,
2013-04-05 14:03:00,57.0,-99.9,-100.00,North,-999,-999.0,-999.0,-999,0.00,,,0.97,,2013-04-05 18:03:00,
2013-04-05 15:53:00,58.0,-99.9,-100.00,North,-999,-999.0,-999.0,-999,0.00,,,0.97,,2013-04-05 19:53:00,
2013-04-05 16:03:00,58.0,-99.9,-100.00,North,-999,-999.0,-999.0,-999,0.00,,,0.97,,2013-04-05 20:03:00,
2013-04-05 16:12:00,58.0,-99.9,-100.00,North,-999,-999.0,-999.0,-999,0.00,,,0.97,,2013-04-05 20:12:00,
2013-04-05 16:53:00,62.0,-99.9,-100.00,North,-999,-999.0,-999.0,-999,0.00,,,0.97,,2013-04-05 20:53:00,
2013-04-05 17:13:00,62.0,-99.9,-100.00,North,-999,-999.0,-999.0,-999,0.00,,,0.97,,2013-04-05 21:13:00,
2013-04-05 17:56:00,63.0,-99.9,-100.00,North,-999,-999.0,-999.0,-999,0.00,,,0.89,,2013-04-05 21:56:00,
2013-04-05 18:04:00,63.0,-99.9,-100.00,North,-999,-999.0,-999.0,-999,0.00,,,0.89,,2013-04-05 22:04:00,
2013-04-05 18:14:00,63.0,-99.9,-100.00,North,-999,-999.0,-999.0,-999,0.00,,,0.89,,2013-04-05 22:14:00,
2013-04-05 18:53:00,64.0,-99.9,-100.00,North,-999,-999.0,-999.0,-999,0.00,,,0.88,,2013-04-05 22:53:00,
2013-04-05 19:04:00,64.0,-99.9,-100.00,North,-999,-999.0,-999.0,-999,0.00,,,0.88,,2013-04-05 23:04:00,
2013-04-05 19:13:00,64.0,-99.9,-100.00,North,-999,-999.0,-999.0,-999,0.00,,,0.88,,2013-04-05 23:13:00,
2013-04-05 19:53:00,61.0,-99.9,-100.00,North,-999,-999.0,-999.0,-999,0.00,,,0.87,,2013-04-05 23:53:00,
2013-04-05 20:13:00,61.0,-99.9,-100.00,North,-999,-999.0,-999.0,-999,0.00,,,0.87,,2013-04-06 00:13:00,
2013-04-05 20:53:00,57.0,-99.9,-100.00,North,-999,-999.0,-999.0,-999,0.00,,,0.84,,2013-04-06 00:53:00,
2013-04-05 21:13:00,57.0,-99.9,-100.00,North,-999,-999.0,-999.0,-999,0.00,,,0.84,,2013-04-06 01:13:00,
2013-04-05 22:53:00,52.0,-99.9,-100.00,North,-999,-999.0,-999.0,-999,0.00,,,0.55,,2013-04-06 02:53:00,
2013-04-05 23:06:00,52.0,-99.9,-100.00,North,-999,-999.0,-999.0,-999,0.00,,,0.55,,2013-04-06 03:06:00,
2013-04-05 23:13:00,52.0,-99.9,-100.00,North,-999,-999.0,-999.0,-999,0.00,,,0.55,,2013-04-06 03:13:00,
2013-04-05 23:55:00,50.0,-99.9,-100.00,North,-999,-999.0,-999.0,-999,0.00,,,0.38,,2013-04-06 03:55:00,